GFSMA_sfc_dewp_120.txt.gz
Dewpoint
64 63 63 63 65 66 67 66 66 66 66 65 64 63 64 63 62 60 58 61 66 68 69 68 67 67 66 66 66 65 65 64 64 63 63 63 62 62 62 61 61 61 61
64 64 64 64 65 66 66 66 66 66 65 65 64 62 61 62 62 60 58 59 64 67 68 69 68 67 67 66 66 66 66 65 65 65 64 64 64 63 63 63 62 62 62
63 63 63 63 64 65 65 66 66 66 65 65 64 63 61 59 59 60 57 59 62 64 66 68 68 69 68 66 66 65 67 67 67 66 65 65 66 66 65 64 64 63 63
63 63 63 63 64 64 65 65 65 64 65 65 65 65 64 61 56 54 56 57 59 61 63 66 67 68 69 68 67 66 68 68 68 68 67 67 67 67 66 66 66 65 64
62 61 62 63 63 63 64 64 64 64 64 64 63 64 63 63 63 62 60 57 55 59 59 62 64 65 66 68 67 66 68 68 68 68 68 68 68 68 67 67 67 66 66
61 61 61 62 62 61 62 61 62 62 61 61 62 63 64 64 64 63 63 62 60 54 57 57 59 61 63 66 67 67 67 68 68 68 69 68 68 68 68 67 67 67 66
59 59 60 61 61 61 61 60 60 60 60 60 59 60 61 63 63 62 63 62 60 56 52 54 55 56 58 63 65 66 67 67 68 68 68 68 68 68 68 67 67 67 67
56 57 58 59 61 60 58 59 59 59 59 61 57 56 53 57 61 62 61 61 60 60 58 53 53 53 55 55 59 63 65 66 66 67 68 68 68 68 68 67 68 67 67
54 55 56 58 60 60 59 58 59 59 58 61 60 55 53 51 55 60 61 61 61 61 60 59 57 54 54 55 57 58 61 63 66 66 67 68 68 69 68 67 67 67 67
50 50 53 54 55 59 59 58 59 59 58 57 58 59 57 55 51 51 55 59 60 60 60 60 59 58 55 55 55 56 57 60 63 64 65 67 68 69 68 68 67 67 67
47 46 48 51 51 53 54 59 59 59 59 57 57 58 56 57 56 56 54 55 56 57 59 59 59 58 57 56 55 56 57 59 62 63 64 65 66 67 69 68 68 67 67
43 43 44 47 48 49 50 53 55 56 56 56 57 57 57 56 56 56 55 55 55 57 57 57 57 56 57 57 56 55 56 58 61 63 63 64 65 65 67 68 68 68 67
40 40 41 42 43 44 48 48 48 51 52 50 51 51 52 51 51 53 56 54 54 55 55 55 55 55 55 55 55 54 55 57 59 61 62 63 63 63 64 66 67 67 67
40 39 40 40 40 41 42 45 45 47 48 48 47 47 48 47 48 50 49 48 48 52 54 54 54 53 52 53 55 54 55 56 57 59 62 63 62 61 62 63 64 65 65
29 32 33 35 36 38 40 41 42 42 43 43 44 46 46 47 48 45 45 46 45 44 46 52 52 50 48 50 50 52 54 56 57 58 58 58 59 59 60 61 60 62 63
29 28 28 28 28 31 34 36 36 37 38 40 41 41 41 42 45 43 44 45 46 42 41 47 46 46 46 46 47 50 51 52 56 57 58 57 58 58 58 59 60 60 61
24 25 26 27 26 28 31 31 31 32 32 33 36 38 37 39 41 39 42 42 42 44 40 41 42 43 43 45 48 49 50 52 54 56 57 58 57 58 58 58 58 59 59
20 20 21 22 22 24 29 30 30 31 31 31 32 33 34 36 36 36 39 39 40 40 38 36 38 40 40 44 45 43 48 49 51 51 53 54 56 57 57 57 57 58 57
20 20 21 22 22 23 27 28 29 30 30 30 31 31 32 32 32 33 37 36 38 38 39 37 36 38 40 41 41 43 41 44 43 46 49 52 53 54 56 56 56 56 56
20 21 22 23 23 22 24 27 29 29 30 30 31 32 32 31 32 33 32 36 34 34 35 35 35 35 37 38 36 36 35 37 38 39 48 49 50 51 53 54 55 53 53
21 22 22 23 23 22 25 28 28 29 29 29 30 30 30 33 34 30 34 33 33 33 33 32 32 32 32 32 32 33 32 34 35 44 40 42 44 45 49 51 52 51 52
22 22 23 24 23 23 30 31 30 29 29 29 29 30 30 31 31 32 31 30 30 29 30 30 29 29 29 30 31 32 32 30 29 38 34 34 36 40 44 48 50 51 52
22 22 23 23 23 24 29 30 30 28 28 29 29 29 28 26 30 29 31 30 29 29 29 29 28 28 28 29 30 30 29 29 29 32 34 33 36 38 42 46 49 50 50
22 22 23 24 24 24 30 30 29 28 29 29 29 28 27 27 28 29 29 29 29 29 30 29 29 29 30 31 31 30 30 31 31 32 34 31 35 35 38 43 46 48 49
22 22 24 24 24 24 29 28 28 27 27 28 28 28 28 28 30 31 28 29 27 28 30 32 32 33 32 30 31 30 29 28 27 29 32 31 34 33 36 38 41 45 47
22 24 23 23 24 22 28 28 28 25 25 25 26 27 30 28 30 30 28 28 27 28 28 29 30 31 28 29 30 30 29 28 26 26 30 28 29 32 33 36 37 40 43

GFSMA_sfc_dewp_123.txt.gz
Dewpoint
62 64 64 65 65 65 65 66 66 66 66 66 65 65 64 64 63 61 59 60 63 67 69 69 68 67 66 66 66 65 65 64 64 64 63 63 62 62 62 62 61 61 61
61 62 63 64 64 65 66 66 65 65 65 65 65 64 64 64 64 62 61 59 62 64 67 69 69 68 67 66 66 66 66 65 65 64 64 64 64 63 63 63 63 62 62
59 60 61 63 63 64 64 65 65 65 65 65 65 64 63 62 62 63 63 60 59 62 65 69 69 69 68 67 66 65 67 67 67 66 65 65 65 65 64 64 64 63 63
57 57 59 61 63 63 64 65 65 64 64 64 64 65 64 64 61 62 62 60 59 60 63 66 67 68 68 68 67 66 64 66 67 67 67 67 67 67 65 65 65 65 64
55 58 60 61 62 62 62 63 64 64 63 63 64 64 65 63 62 62 61 60 58 59 60 62 64 65 65 68 68 66 67 67 68 68 68 68 67 67 67 66 67 66 66
57 57 57 58 60 60 59 61 61 62 63 62 63 63 63 63 63 62 62 63 63 62 60 60 61 62 62 64 65 67 67 67 67 68 68 68 68 68 67 67 67 66 66
54 55 56 56 58 58 57 59 60 60 61 61 61 60 60 62 62 63 63 63 62 62 62 61 60 60 61 63 63 64 66 67 67 67 68 68 68 68 68 67 67 67 67
51 50 51 52 56 58 57 58 59 58 58 59 57 56 55 57 61 62 62 61 61 62 61 59 59 58 58 57 58 63 63 65 65 66 67 68 68 69 68 68 68 67 67
48 47 48 49 53 55 56 57 58 58 57 58 59 57 53 51 54 59 61 61 61 61 61 61 61 59 59 59 58 58 61 63 65 65 66 66 67 69 68 68 68 68 68
44 44 46 47 49 52 56 57 58 59 59 57 59 60 58 55 52 51 55 59 61 60 61 61 61 60 58 57 57 57 58 61 62 63 64 65 66 67 68 69 69 68 67
41 41 43 45 47 49 50 53 56 57 58 58 57 57 58 58 56 55 53 54 55 57 60 60 61 60 59 58 58 57 58 59 61 62 63 63 64 64 66 68 68 68 67
40 39 41 42 43 45 47 48 49 50 51 52 52 55 56 55 55 56 55 54 53 56 57 59 59 59 59 60 58 56 57 58 60 61 62 63 64 64 65 65 66 67 68
38 40 40 40 41 42 44 45 45 46 47 46 47 50 49 50 51 52 54 53 54 55 56 57 58 57 54 52 55 51 54 56 58 59 61 62 63 63 63 64 65 65 66
37 33 36 38 39 41 41 42 42 43 43 45 46 47 47 48 48 47 48 48 48 49 52 53 50 47 44 48 49 49 50 53 53 56 59 60 60 60 61 62 63 63 64
27 29 31 31 33 37 38 38 39 40 41 42 43 44 45 47 45 44 45 46 46 44 45 49 50 45 45 46 46 49 49 50 53 55 55 57 57 57 58 60 60 61 61
25 26 27 28 28 31 31 33 34 34 35 38 39 39 40 44 40 40 44 44 44 43 43 43 43 42 43 41 44 45 45 50 52 52 52 53 54 56 57 58 59 60 60
22 23 24 26 26 29 31 31 30 31 31 32 34 36 37 38 38 38 41 40 40 41 39 40 40 40 39 40 41 42 45 46 48 47 47 49 53 54 55 57 58 58 59
20 21 22 22 23 25 29 30 30 30 30 30 31 33 33 30 33 35 39 36 37 38 37 35 37 37 37 39 40 40 39 40 42 40 41 50 51 52 53 53 55 57 57
20 21 22 22 23 23 26 28 29 29 29 29 31 31 31 31 31 33 33 35 35 35 36 35 33 35 35 36 34 35 34 35 35 36 36 46 47 46 48 51 53 54 55
21 21 22 23 24 23 25 28 28 29 28 29 30 31 31 31 32 31 34 32 32 31 32 31 32 32 33 33 33 31 30 33 32 31 40 36 37 38 39 46 49 50 51
21 22 23 23 23 23 25 29 28 28 28 28 29 29 30 31 32 32 32 31 30 29 30 30 29 30 29 29 29 30 30 31 30 37 33 33 35 36 38 40 43 47 49
22 22 22 23 23 22 31 31 29 28 28 28 28 28 29 29 30 31 32 31 29 27 28 27 28 27 27 28 30 31 30 28 27 34 31 32 35 35 37 42 44 45 47
22 22 22 23 23 23 30 30 30 28 27 28 28 28 27 26 30 28 31 32 32 31 30 28 27 27 27 28 29 28 28 29 29 31 31 30 33 33 35 38 40 43 43
21 22 22 23 23 24 30 29 30 27 27 27 28 28 27 27 29 30 29 28 29 29 29 29 29 29 30 30 31 30 30 30 29 30 32 27 30 31 33 34 36 42 44
21 21 23 23 22 23 29 29 28 26 26 25 26 27 28 28 30 30 28 28 28 28 30 32 33 33 33 34 30 29 27 26 24 25 28 29 28 26 27 30 38 37 39
22 23 22 22 24 22 27 28 28 25 25 24 25 28 28 26 28 28 27 27 29 30 29 30 31 30 32 28 30 28 27 26 25 23 27 25 25 28 25 30 31 31 35

GFSMA_sfc_dewp_126.txt.gz
Dewpoint
56 58 60 61 62 64 64 65 65 65 66 66 66 66 65 65 64 64 62 61 63 63 64 67 69 68 67 66 66 66 65 65 64 64 64 63 63 62 62 62 62 61 61
54 57 58 59 60 62 63 64 65 65 65 65 65 66 65 65 64 63 62 61 62 63 64 66 68 68 68 66 66 66 67 65 65 65 64 64 64 63 63 63 63 62 62
51 53 56 56 58 61 62 63 63 64 65 65 64 65 65 65 64 63 63 62 61 62 63 64 66 68 68 67 66 66 65 67 67 66 66 65 65 65 64 63 63 63 63
51 54 55 57 59 61 61 60 59 60 63 64 63 64 64 64 64 63 63 63 63 61 62 64 65 67 68 68 67 66 67 66 67 67 67 67 66 66 65 65 65 65 64
55 55 56 56 57 58 59 58 58 60 61 62 62 63 64 64 64 63 62 63 62 61 61 62 63 64 65 67 67 66 66 66 66 67 67 67 67 67 67 66 66 66 65
50 50 52 52 53 55 57 56 56 57 59 60 61 61 62 63 64 63 61 60 60 59 61 61 61 62 62 62 64 65 65 67 66 66 67 67 67 68 67 67 67 67 66
48 48 48 50 51 53 53 56 56 55 57 59 60 59 60 62 62 62 63 62 62 62 62 61 60 60 61 61 62 64 65 65 64 65 65 67 67 68 67 67 67 67 67
47 45 45 48 49 50 52 53 55 55 56 59 57 56 55 56 60 61 62 62 62 62 61 61 61 61 60 60 60 61 62 64 64 63 64 64 66 68 68 68 68 67 67
44 44 44 46 48 48 50 50 54 52 52 56 59 55 53 52 53 57 60 61 61 61 61 61 60 61 61 60 60 60 61 61 63 63 63 63 64 64 67 67 68 68 68
41 41 42 43 43 46 48 48 51 54 54 53 56 59 56 55 53 51 55 59 60 60 60 61 61 60 60 59 59 59 60 61 63 65 65 65 64 64 65 66 67 68 68
40 40 41 42 42 43 45 46 47 49 51 55 56 55 57 57 56 55 52 54 56 59 60 61 61 60 60 60 59 58 59 60 62 63 64 64 64 64 65 65 66 67 68
39 37 39 40 42 42 42 44 44 46 47 48 51 51 50 49 47 48 52 53 54 56 58 59 60 60 60 60 50 51 54 55 58 59 61 62 62 63 63 64 64 65 66
34 32 35 37 39 41 41 42 42 43 44 45 46 48 47 47 48 48 48 47 54 55 56 53 52 50 49 51 46 50 52 52 53 57 59 61 61 61 61 62 63 64 64
31 30 31 32 34 37 38 39 40 40 41 42 42 42 45 43 43 44 45 45 46 49 51 51 46 43 45 43 44 48 49 48 52 54 55 55 55 57 59 60 60 61 63
23 27 27 29 30 32 33 35 36 37 38 40 41 41 43 41 40 41 44 45 44 45 47 49 48 41 41 39 44 44 43 47 50 51 50 49 51 53 55 58 59 60 60
23 25 25 26 26 30 31 32 32 32 33 35 36 39 39 38 38 39 43 41 42 42 42 42 41 39 39 38 41 40 43 43 47 43 44 43 51 53 53 54 56 58 59
22 23 24 25 25 28 30 30 30 30 30 31 33 34 32 33 35 37 41 38 39 40 38 39 39 38 37 37 38 35 38 38 39 38 39 39 50 49 48 50 53 54 56
20 21 22 23 23 24 27 29 29 29 29 29 31 32 31 30 33 34 37 36 36 37 36 34 35 35 35 37 34 34 33 33 35 34 36 43 43 41 40 42 48 50 52
20 21 22 23 23 23 25 28 29 28 28 29 30 30 30 31 32 32 34 34 33 32 33 32 31 33 34 34 31 32 31 33 32 33 38 36 36 37 38 39 41 44 47
20 21 22 23 23 23 24 28 28 28 27 28 29 29 29 30 31 30 33 31 31 30 30 30 30 30 30 31 30 29 29 30 30 30 33 32 35 37 37 38 41 45 46
21 22 22 22 23 22 24 29 28 28 27 27 28 28 28 30 31 30 30 31 29 28 28 28 27 28 27 27 27 30 29 29 29 33 30 30 32 34 35 37 39 40 41
21 21 21 22 22 22 29 31 30 28 27 27 27 28 28 29 31 32 32 32 31 27 27 27 26 27 26 27 28 28 28 26 25 32 29 29 32 31 33 36 37 35 38
21 20 21 22 22 23 30 30 32 27 27 27 28 28 27 27 30 29 31 32 31 33 32 30 27 26 26 27 28 29 26 26 26 28 28 26 29 30 32 27 30 33 43
20 20 21 22 22 23 28 30 30 26 26 26 26 26 27 27 28 29 28 28 28 29 29 29 29 29 29 30 31 30 28 27 28 28 28 23 30 26 26 28 32 38 35
20 20 22 22 21 22 27 28 28 26 26 25 25 26 27 26 28 29 26 27 27 28 31 32 33 35 35 35 34 28 25 23 22 24 26 25 24 25 26 29 34 32 32
21 22 21 22 24 22 25 28 28 26 25 24 25 26 29 27 29 29 27 27 27 28 28 29 31 32 32 30 32 29 26 24 24 21 25 23 24 25 22 28 27 28 29

GFSMA_sfc_dewp_129.txt.gz
Dewpoint
50 52 52 54 56 57 55 58 61 62 63 64 65 66 65 65 66 66 65 63 64 65 64 63 67 68 68 68 67 67 67 66 65 66 65 64 64 63 63 63 63 62 62
51 54 55 57 58 59 60 61 61 61 62 63 64 64 65 66 66 66 66 66 63 65 65 65 64 68 68 68 67 66 67 67 66 65 65 64 64 64 63 63 63 63 63
55 56 57 57 57 58 58 58 59 59 60 61 63 64 65 65 65 65 66 66 64 63 64 65 64 65 68 68 68 67 68 67 67 67 66 66 66 66 64 64 64 64 63
53 54 55 55 56 57 57 57 56 56 58 60 61 62 64 65 64 65 65 65 65 64 63 64 65 65 66 67 67 67 68 67 67 67 67 67 66 66 66 66 65 65 65
50 50 51 52 52 53 53 55 56 57 57 57 59 61 62 63 63 64 64 64 64 64 65 63 63 63 65 66 66 67 67 67 67 67 67 67 67 67 67 66 66 66 66
48 48 48 49 50 50 52 53 52 55 56 56 55 55 59 62 64 65 64 64 64 64 63 63 64 63 63 65 67 66 67 67 67 67 66 66 66 66 66 66 67 66 66
44 45 46 47 48 48 49 50 53 53 53 56 56 55 57 59 60 63 64 64 63 63 62 63 63 64 64 64 65 65 66 66 66 65 65 64 64 65 66 66 67 67 67
42 42 43 45 46 48 48 48 50 52 54 56 53 54 50 53 59 60 62 63 62 62 62 62 61 61 62 63 63 64 65 65 66 66 65 65 64 63 63 64 66 67 67
41 42 42 43 44 46 47 47 48 49 50 54 54 52 49 49 55 59 60 61 61 62 62 62 62 61 61 61 61 61 62 63 65 65 65 64 64 64 64 63 63 65 67
39 40 40 42 43 43 44 45 46 46 48 48 52 54 53 54 52 50 57 58 60 60 61 61 61 61 61 62 61 59 60 61 63 64 64 64 64 64 64 65 65 64 65
34 32 37 38 40 42 42 43 44 44 45 47 48 51 53 53 55 54 52 55 57 59 60 61 61 61 61 61 61 59 59 61 63 64 65 65 65 65 66 66 66 64 65
33 31 32 35 37 38 40 41 42 43 43 44 45 48 48 48 49 49 49 49 53 55 58 56 57 57 56 50 51 53 55 56 57 58 60 62 63 63 63 64 65 66 66
30 30 30 32 34 35 36 37 39 40 42 42 42 44 44 43 45 47 48 46 47 51 54 47 45 47 46 47 47 51 48 51 54 57 58 58 57 57 59 61 62 62 64
29 28 28 29 31 32 33 34 36 36 38 41 41 42 41 40 41 43 44 44 45 49 51 47 44 43 43 45 45 44 45 49 51 50 51 50 51 54 55 57 59 60 61
22 25 26 27 29 31 31 32 32 32 34 37 39 41 39 38 38 41 41 42 43 43 45 44 43 41 41 42 42 39 40 42 44 42 42 42 50 52 53 54 54 56 58
23 24 25 25 26 29 30 30 29 29 30 33 34 32 32 34 36 41 39 39 41 40 40 41 40 39 39 38 36 37 37 36 37 38 38 39 48 47 46 47 50 53 54
22 23 24 24 24 26 29 30 29 28 28 30 31 32 31 32 34 36 37 38 37 38 36 37 38 36 35 34 32 33 32 32 32 35 38 43 41 40 41 41 43 48 49
20 21 22 22 22 23 28 29 29 28 28 28 29 31 30 30 33 34 36 33 32 33 32 30 31 33 31 32 32 32 30 28 31 32 40 36 36 37 39 39 40 42 45
20 20 22 22 22 23 25 29 29 28 27 28 29 28 29 31 32 33 34 32 32 30 32 30 29 32 31 31 31 32 31 31 27 32 33 32 34 36 36 37 40 43 43
20 21 21 22 23 22 25 29 29 28 27 28 28 28 28 30 30 31 31 33 31 31 30 30 29 29 31 30 31 31 30 30 29 31 30 30 32 34 35 37 38 39 37
20 21 21 22 22 22 23 31 30 29 27 27 28 28 28 30 31 31 30 31 32 31 31 30 29 29 28 28 28 30 30 29 28 34 28 28 28 31 32 33 32 32 33
20 21 21 21 22 21 27 32 31 29 27 27 27 28 28 29 30 32 33 33 32 30 30 30 30 29 28 29 29 30 29 28 26 30 27 26 27 29 29 27 29 32 37
20 20 20 21 22 22 28 31 30 27 27 27 27 27 27 27 31 28 31 32 31 31 31 31 30 29 28 29 30 31 30 29 28 27 27 25 26 28 24 22 30 35 37
19 20 21 22 22 22 27 29 29 27 27 27 27 26 27 28 28 27 28 28 27 28 29 29 31 31 32 32 32 33 33 30 29 28 28 24 28 26 26 26 29 34 31
20 21 21 22 22 22 27 27 28 28 27 26 25 25 27 27 28 29 27 27 26 27 29 32 32 33 33 34 32 35 32 29 26 25 26 27 26 26 26 28 29 30 29
20 22 22 23 24 24 26 27 28 26 26 25 25 25 29 28 29 28 27 28 28 27 27 29 30 31 31 30 31 31 30 28 26 25 27 26 24 25 23 26 28 26 27